This is the latest recevied weather packets stored in our database for station/object KB1RMA-13. If no packets are shown the sender has not sent any weather packets the latest 10 day(s).
| Time | Temp. | Humidity | Pressure | Rain* | Wind** | Luminosity | Snow |
|---|---|---|---|---|---|---|---|
| 1778004609 | 27.22° C | 44% | 1006.1 hPa | 0 mm | - | 839 W/m² | - |
| 1778004304 | 27.22° C | 44% | 1006 hPa | 0 mm | - | 840 W/m² | - |
| 1778004002 | 27.22° C | 42% | 1005.9 hPa | 0 mm | - | 806 W/m² | - |
| 1778003697 | 26.67° C | 47% | 1006.1 hPa | 0 mm | - | 844 W/m² | - |
| 1778003394 | 27.78° C | 40% | 1006.3 hPa | 0 mm | - | 779 W/m² | - |
| 1778003091 | 27.78° C | 41% | 1006.2 hPa | 0 mm | - | 857 W/m² | - |
| 1778002787 | 27.22° C | 40% | 1006.3 hPa | 0 mm | - | 878 W/m² | - |
| 1778002484 | 27.22° C | 40% | 1006.6 hPa | 0 mm | - | 867 W/m² | - |
| 1778002181 | 27.22° C | 43% | 1006.5 hPa | 0 mm | - | 886 W/m² | - |
| 1778001879 | 27.22° C | 41% | 1006.7 hPa | 0 mm | - | 880 W/m² | - |
| 1778001578 | 27.22° C | 40% | 1006.8 hPa | 0 mm | - | 888 W/m² | - |
| 1778001276 | 27.22° C | 40% | 1007 hPa | 0 mm | - | 887 W/m² | - |
| 1778000972 | 27.22° C | 39% | 1006.8 hPa | 0 mm | - | 888 W/m² | - |
| 1778000669 | 26.67° C | 41% | 1006.8 hPa | 0 mm | - | 897 W/m² | - |
| 1778000364 | 26.67° C | 40% | 1007.2 hPa | 0 mm | - | 902 W/m² | - |
| 1778000060 | 26.67° C | 41% | 1007.2 hPa | 0 mm | - | 891 W/m² | - |
| 1777999756 | 26.67° C | 41% | 1007.3 hPa | 0 mm | - | 870 W/m² | - |
| 1777999453 | 26.67° C | 42% | 1007.7 hPa | 0 mm | - | 872 W/m² | - |
| 1777999151 | 26.67° C | 41% | 1007.6 hPa | 0 mm | - | 892 W/m² | - |
| 1777998850 | 26.11° C | 44% | 1007.6 hPa | 0 mm | - | 867 W/m² | - |
| 1777998548 | 25.56° C | 44% | 1007.7 hPa | 0 mm | - | 856 W/m² | - |
| 1777998243 | 25.56° C | 46% | 1007.8 hPa | 0 mm | - | 187 W/m² | - |
| 1777997941 | 25.56° C | 44% | 1008 hPa | 0 mm | - | 192 W/m² | - |
| 1777997637 | 25.56° C | 46% | 1008 hPa | 0 mm | - | 899 W/m² | - |
| 1777997335 | 25.56° C | 46% | 1008.3 hPa | 0 mm | - | 141 W/m² | - |
* Rain latest hour (hover to see other rain measurements)
** Current wind speed in m/s (hover to see current wind gust speed)